{"data":{"norad_id":48355,"epoch":"2026-05-25T00:18:21.492000Z","epoch_age_seconds":83985,"freshness":"FRESH","line1":"1 48355U 21038C   26145.01274875  .00002708  00000+0  98949-4 0  9990","line2":"2 48355  53.1607   3.1329 0001297  80.0337 280.0811 15.31713255278771","mean_motion":15.31713255,"eccentricity":0.0001297,"inclination_deg":53.1607,"raan_deg":3.1329,"arg_perigee_deg":80.0337,"mean_anomaly_deg":280.0811,"bstar":9.8949e-5,"rev_number":27877,"period_min":94.012374398366,"perigee_km":469.81218882377,"apogee_km":471.58877726687,"semimajor_km":6848.8374830453,"source":"CELESTRAK","updated_at":"2026-05-25T13:38:16.684620Z"}}